DW3793 Weather Reports


Display with metric or nautical units.
time (UTC)temp
F
wind
direction
speed
MPH
gust
MPH
rain 1hr
in
rain 24hr
in
rain mn
in
humidity
%
barometer
mb
20260510084548 48 297 2.0 3.0 0.00 0.00 0.00 70 1018.0
20260510083056 48 300 0.0 3.0 0.00 0.00 0.00 70 1017.9
20260510081558 49 198 0.0 3.0 0.00 0.00 0.00 68 1018.1
20260510080045 51 300 0.0 2.0 0.00 0.00 0.00 62 1017.8
20260510074538 52 279 0.0 2.0 0.00 0.00 0.00 61 1017.8
20260510073034 52 252 0.0 3.0 0.00 0.00 0.00 60 1018.1
20260510071540 53 290 0.0 3.0 0.00 0.00 0.00 60 1018.0
20260510070040 53 289 1.0 6.0 0.00 0.00 0.00 58 1018.0
20260510064535 53 292 2.0 8.0 0.00 0.00 0.00 57 1018.1
20260510063033 54 306 1.0 5.0 0.00 0.00 0.00 56 1018.2
20260510061558 55 317 1.0 5.0 0.00 0.00 0.00 55 1018.0
20260510060057 56 263 1.0 5.0 0.00 0.00 0.00 52 1018.1
20260510054554 56 300 1.0 3.0 0.00 0.00 0.00 54 1018.0
20260510053053 57 299 0.0 0.0 0.00 0.00 0.00 52 1018.1
20260510051557 59 269 1.0 4.0 0.00 0.00 0.00 48 1018.1
20260510050053 58 297 2.0 7.0 0.00 0.00 0.00 49 1018.0
20260510044610 58 299 1.0 4.0 0.00 0.00 0.00 51 1018.1
20260510043049 59 326 3.0 6.0 0.00 0.00 0.00 52 1018.1
20260510041548 61 324 4.0 10.0 0.00 0.00 0.00 49 1018.2
20260510040047 60 325 3.0 9.0 0.00 0.00 0.00 52 1017.8
20260510034546 60 321 4.0 9.0 0.00 0.00 0.00 54 1017.7
20260510033045 60 321 1.0 4.0 0.00 0.00 0.00 59 1017.6
20260510031546 61 292 1.0 7.0 0.00 0.00 0.00 57 1017.4
20260510030043 62 309 2.0 3.0 0.00 0.00 0.00 57 1017.4
20260510024542 66 293 1.0 3.0 0.00 0.00 0.00 55 1017.3
20260510023040 71 116 0.0 0.0 0.00 0.00 0.00 44 1017.2
20260510021541 71 123 0.0 3.0 0.00 0.00 0.00 43 1017.2
20260510020039 72 94 2.0 7.0 0.00 0.00 0.00 42 1017.2
20260510014535 73 111 1.0 7.0 0.00 0.00 0.00 39 1017.2
20260510013033 73 88 1.0 4.0 0.00 0.00 0.00 37 1017.3
20260510011533 73 98 4.0 8.0 0.00 0.00 0.00 33 1017.4
20260510010032 74 144 3.0 9.0 0.00 0.00 0.00 31 1017.4
20260510004501 75 101 2.0 7.0 0.00 0.00 0.00 26 1017.4
20260510003101 75 90 1.0 5.0 0.00 0.00 0.00 22 1017.4
20260510001605 74 89 0.0 5.0 0.00 0.00 0.00 23 1017.4
20260510000056 74 98 1.0 6.0 0.00 0.00 0.00 18 1017.7
20260509234618 74 153 1.0 5.0 0.00 0.00 0.00 20 1017.7
20260509233052 75 122 0.0 4.0 0.00 0.00 0.00 21 1017.8
20260509231552 73 109 2.0 4.0 0.00 0.00 0.00 21 1017.9
20260509230020 74 173 2.0 6.0 0.00 0.00 0.00 23 1018.0
20260509224522 73 309 1.0 3.0 0.00 0.00 0.00 19 1018.1
20260509223015 72 216 2.0 5.0 0.00 0.00 0.00 17 1018.3
20260509221512 72 111 0.0 5.0 0.00 0.00 0.00 20 1018.5
20260509220008 72 171 2.0 7.0 0.00 0.00 0.00 22 1018.7
20260509214506 71 73 3.0 7.0 0.00 0.00 0.00 26 1018.9
20260509213004 71 135 0.0 4.0 0.00 0.00 0.00 25 1019.1
20260509211502 71 128 2.0 6.0 0.00 0.00 0.00 24 1019.2
20260509210100 70 95 1.0 7.0 0.00 0.00 0.00 21 1019.2
20260509210001 70 91 2.0 7.0 0.00 0.00 0.00 22 1019.3
20260509204606 70 84 1.0 8.0 0.00 0.00 0.00 29 1019.4
20260509203128 68 108 1.0 7.0 0.00 0.00 0.00 26 1019.5
20260509201604 68 120 2.0 10.0 0.00 0.00 0.00 27 1019.7
20260509200056 67 252 0.0 8.0 0.00 0.00 0.00 30 1019.9
20260509194548 67 142 3.0 7.0 0.00 0.00 0.00 36 1020.0
20260509193052 66 80 0.0 7.0 0.00 0.00 0.00 34 1020.2
20260509191554 65 131 2.0 4.0 0.00 0.00 0.00 36 1020.3
20260509190040 64 166 0.0 8.0 0.00 0.00 0.00 41 1020.6
20260509184539 64 173 1.0 4.0 0.00 0.00 0.00 42 1020.8
20260509183038 64 134 1.0 4.0 0.00 0.00 0.00 44 1020.9
20260509181538 62 87 3.0 6.0 0.00 0.00 0.00 45 1021.0
20260509180035 61 93 2.0 5.0 0.00 0.00 0.00 47 1021.1
20260509174531 61 61 0.0 7.0 0.00 0.00 0.00 51 1021.1
20260509173026 60 149 1.0 7.0 0.00 0.00 0.00 50 1021.2
20260509171524 59 111 1.0 6.0 0.00 0.00 0.00 53 1021.2
20260509170022 59 146 3.0 8.0 0.00 0.00 0.00 56 1021.4
20260509164520 58 61 2.0 7.0 0.00 0.00 0.00 56 1021.4
20260509163016 57 152 2.0 6.0 0.00 0.00 0.00 59 1021.5
20260509161514 58 278 0.0 2.0 0.00 0.00 0.00 59 1021.4
20260509160010 56 142 0.0 3.0 0.00 0.00 0.00 64 1021.4
20260509154516 55 71 0.0 4.0 0.00 0.00 0.00 65 1021.4
20260509153039 55 113 0.0 1.0 0.00 0.00 0.00 62 1021.5
20260509151536 54 116 0.0 2.0 0.00 0.00 0.00 64 1021.5
20260509150003 53 138 0.0 2.0 0.00 0.00 0.00 65 1021.5
20260509144604 52 144 1.0 2.0 0.00 0.00 0.00 68 1021.4
20260509143026 51 226 0.0 1.0 0.00 0.00 0.00 68 1021.5
20260509141526 49 248 0.0 1.0 0.00 0.00 0.00 70 1021.5
20260509140023 47 248 0.0 3.0 0.00 0.00 0.00 75 1021.6
20260509134521 44 259 0.0 3.0 0.00 0.00 0.00 78 1021.6
20260509133022 43 298 1.0 4.0 0.00 0.00 0.00 78 1021.5
20260509131519 43 309 3.0 6.0 0.00 0.00 0.00 78 1021.3
20260509130023 43 300 4.0 7.0 0.00 0.00 0.00 77 1021.2
20260509124514 43 285 3.0 6.0 0.00 0.00 0.00 78 1021.3
20260509123012 43 313 2.0 6.0 0.00 0.00 0.00 77 1021.3
20260509121510 43 311 4.0 8.0 0.00 0.00 0.00 76 1021.2
20260509120006 43 306 2.0 6.0 0.00 0.00 0.00 76 1021.1
20260509114505 43 294 3.0 8.0 0.00 0.00 0.00 77 1021.0
20260509113001 43 292 4.0 7.0 0.00 0.00 0.00 75 1021.0
20260509111605 44 309 2.0 5.0 0.00 0.00 0.00 74 1020.9
20260509110059 44 290 3.0 7.0 0.00 0.00 0.00 73 1020.8
20260509110057 44 338 3.0 7.0 0.00 0.00 0.00 73 1020.8
20260509104553 44 262 1.0 5.0 0.00 0.00 0.00 73 1020.7
20260509103052 44 285 1.0 7.0 0.00 0.00 0.00 74 1020.8
20260509101549 44 252 1.0 5.0 0.00 0.00 0.00 74 1020.9
20260509100048 44 311 2.0 7.0 0.00 0.00 0.00 73 1020.8
20260509094542 45 274 3.0 7.0 0.00 0.00 0.00 72 1020.8
20260509093039 45 302 3.0 7.0 0.00 0.00 0.00 71 1020.7
20260509091536 45 309 2.0 4.0 0.00 0.00 0.00 71 1020.6
20260509090035 45 297 2.0 5.0 0.00 0.00 0.00 70 1020.6